Regional Weather Roundup
Issued by NWS Cleveland, OH

Home | Current Version | Previous Version | Text Only | Print | Product List | Glossary Off
Versions: 1 2 3 4 5 6 7 8 9 10 11 12 13 14 15 16 17 18 19 20 21 22 23 24 25 26 27 28 29 30 31 32 33 34 35 36 37 38 39 40 41 42 43 44 45 46 47 48 49 50

000
ASUS41 KCLE 251110
RWRCLE
OHIO REGIONAL WEATHER ROUNDUP
NATIONAL WEATHER SERVICE WILMINGTON, OH
700 AM EDT FRI JUL 25 2014

NOTE: "FAIR" INDICATES FEW OR NO CLOUDS BELOW 12,000 FEET WITH NO
SIGNIFICANT WEATHER AND/OR OBSTRUCTIONS TO VISIBILITY.

OHZ001>008-015>018-024>027-034-035-043-044-251200-
   NORTHWEST OHIO

CITY           SKY/WX    TMP DP  RH WIND       PRES   REMARKS
DEFIANCE       PTCLDY    51  49  92 CALM      30.10F
FINDLAY        CLEAR     51  48  89 CALM      30.10R
TOLEDO EXPRESS CLEAR     50  49  96 CALM      30.09S
TOLEDO METCALF CLEAR     53  49  86 S5        30.10S
LIMA           CLEAR     54  50  86 CALM      30.12R
$$

OHZ009>014-019>023-028>033-038-089-251200-
   NORTHEAST OHIO

CITY           SKY/WX    TMP DP  RH WIND       PRES   REMARKS
CLE-HOPKINS    PTCLDY    53  50  89 S3        30.12R
CLE-LAKEFRONT  CLEAR     58  51  78 S6        30.09R
CUY CO. ARPT   PTCLDY    54  50  87 S5        30.11
LORAIN-ELYRIA  CLEAR     54  50  86 CALM      30.11S
ASHTABULA      CLEAR     49  47  93 CALM      30.11R
AKRON-CANTON   PTCLDY    54  49  83 CALM      30.11R
WOOSTER        CLEAR     49  47  93 CALM      30.12R
MANSFIELD      CLEAR     50  50 100 CALM      30.12R
YOUNGSTOWN     PTCLDY    48  47  96 CALM      30.11R
$$

OHZ042-051>053-060>062-070>072-077>081-251200-
  SOUTHWEST OHIO

CITY           SKY/WX    TMP DP  RH WIND       PRES   REMARKS
CINC-COVINGTON PTCLDY    59  52  77 CALM      30.10R
CINC-LUNKEN    PTCLDY    53  52  96 N3        30.12R
HAMILTON       CLEAR     52  52 100 CALM      30.12R
DAYTON         PTCLDY    54  50  86 CALM      30.12S
WRIGHT-PAT AFB PTCLDY    54  51  92 CALM      30.11S
DAYTON GENERAL CLEAR     54  51  90 CALM      30.11R
WILMINGTON     PTCLDY    52  49  89 CALM      30.11R
$$

OHZ036-037-039>041-045>050-054>059-063>069-073>076-082>088-251200-
  CENTRAL AND SOUTHEAST OHIO

CITY           SKY/WX    TMP DP  RH WIND       PRES   REMARKS
COLUMBUS       PTCLDY    56  50  80 NE3       30.10R
OSU AIRPORT    CLEAR     53  50  89 N3        30.12R
BOLTON FIELD   CLEAR     49  49 100 CALM      30.11R
RICKENBACK AFB CLEAR     56  49  76 CALM      30.10R
NEWARK         CLEAR     50  49  96 CALM      30.11S FOG
MARION         CLEAR     50  49  96 CALM      30.12R
LANCASTER      PTCLDY    51  49  92 CALM      30.11R FOG
ZANESVILLE     CLEAR     52  49  89 CALM      30.11R
NEW PHILLY     FOG       50  49  96 CALM      30.12R VSB 1/2
$$


USA.gov is the U.S. government's official web portal to all federal, state and local government web resources and services.